Wind_Speed
6 6 6 7 7 6 6 6 6 5 5 5 5 5 5 6 6 6 7 8 9 9 9 9 9 9 8 7 7 7 7 6 6 6 6 7 8 8 7 6 7 6 5
6 6 6 7 7 6 6 5 4 4 3 3 3 4 4 5 5 5 6 7 8 8 8 8 8 8 8 8 7 7 6 6 6 7 6 7 6 6 5 5 7 5 5
5 6 6 7 7 7 6 5 4 4 3 2 1 2 2 4 4 4 5 6 7 7 7 7 7 7 7 8 7 7 7 7 7 7 7 6 5 5 5 5 5 5 5
5 6 7 7 7 7 7 5 5 4 4 3 2 1 1 2 3 3 4 4 5 6 7 7 6 6 6 7 6 6 7 7 7 7 6 6 5 5 5 5 5 4 4
6 6 7 7 7 7 7 6 5 5 4 4 3 3 2 1 2 2 3 3 4 5 6 6 6 6 6 6 6 6 6 7 7 7 6 6 6 5 5 4 4 4 4
6 7 7 7 7 7 7 6 6 5 4 4 4 3 2 2 1 2 2 2 3 5 5 5 5 4 5 5 5 5 5 5 6 5 5 5 5 5 5 4 4 4 4
6 7 8 7 7 7 7 6 6 5 4 4 4 3 3 2 2 2 2 2 3 4 4 3 3 3 3 3 4 4 4 5 4 5 5 5 5 5 5 4 4 4 4
7 7 7 7 7 7 7 6 6 6 5 4 4 3 3 3 2 2 2 2 2 3 3 3 2 2 2 2 2 2 3 4 4 4 4 4 4 5 4 4 4 5 5
7 7 7 7 7 7 7 7 6 6 5 5 4 4 4 4 3 2 2 2 2 2 2 2 1 1 1 2 2 3 3 4 4 5 5 5 5 5 4 4 5 5 6
6 7 7 7 7 7 7 7 6 6 5 5 5 4 4 4 3 3 2 2 2 1 1 1 1 0 1 2 3 3 4 4 4 4 5 5 6 6 5 5 6 6 6
5 6 7 7 7 7 7 7 6 6 6 5 5 4 4 4 4 3 3 2 2 1 1 1 0 1 1 2 3 4 4 5 5 5 5 6 6 6 6 6 6 6 6
5 5 6 7 7 6 6 6 6 7 6 6 5 5 4 4 3 3 3 2 2 2 1 0 1 1 2 2 3 4 4 4 5 5 6 6 6 6 6 7 7 7 7
4 4 5 6 6 6 6 6 6 7 6 6 5 5 4 4 4 3 3 2 2 2 2 1 2 2 2 3 4 4 4 4 5 5 6 6 7 7 7 7 8 8 8
2 3 4 5 6 6 6 6 6 6 6 6 5 5 4 4 4 4 3 2 2 2 2 2 2 3 3 4 4 5 4 4 5 5 6 6 7 7 7 8 8 8 9
1 2 3 4 5 5 6 6 6 6 6 6 5 5 4 3 4 4 3 3 3 2 2 2 2 3 4 5 5 5 4 4 4 5 6 6 6 7 7 8 8 9 10
0 1 2 3 3 4 4 5 5 5 6 6 5 5 5 4 4 4 4 4 4 3 3 3 4 4 5 5 5 6 6 5 4 5 7 7 7 7 8 10 10 10 11
2 1 0 1 1 2 3 3 4 4 5 5 4 4 4 4 3 3 3 3 4 4 4 4 4 5 5 6 6 6 7 6 6 6 8 8 9 9 9 11 11 11 12
4 3 2 1 1 1 2 2 3 3 4 4 3 3 3 3 3 3 3 3 4 4 4 4 5 5 6 6 7 7 7 8 8 8 8 9 10 11 11 12 13 13 13
6 5 4 4 3 3 3 3 3 3 3 4 4 4 4 3 3 3 3 4 4 5 5 5 6 6 6 7 8 8 9 9 10 10 10 11 12 12 13 14 15 15 15
8 7 6 6 5 5 5 4 4 4 4 5 5 5 5 4 4 4 5 5 5 6 6 7 8 8 8 8 9 10 10 11 11 12 12 13 13 15 15 16 17 18 18
10 9 8 7 7 7 7 6 6 6 6 6 6 6 6 6 6 6 6 7 7 8 8 9 9 10 10 11 11 12 12 12 13 13 14 15 16 17 17 18 19 20 20
11 11 10 9 9 9 8 8 8 8 8 8 8 8 8 8 7 7 8 8 9 9 10 11 11 12 13 13 14 14 14 14 15 16 17 18 18 19 20 21 22 22 23
12 12 12 11 11 11 11 10 10 10 10 9 10 9 9 9 9 10 10 10 11 12 13 14 14 15 15 16 16 16 17 17 18 18 19 20 21 21 23 24 25 26 27
13 13 12 12 12 12 12 12 12 12 11 11 11 11 11 11 12 12 13 13 14 14 15 16 16 17 17 18 18 18 19 20 20 21 22 22 23 25 26 27 28 29 29
14 14 14 14 14 14 14 14 14 14 13 13 14 13 14 14 15 15 16 16 16 17 17 18 18 19 20 21 21 22 22 23 24 25 26 26 27 28 29 30 31 32 33
15 15 15 14 14 14 15 15 15 15 15 15 16 16 17 17 18 18 18 19 19 19 20 21 21 22 23 23 24 25 25 26 27 28 29 30 31 31 31 32 34 35 35
Wind_Direction
347 346 348 344 337 331 326 321 316 313 304 291 277 268 256 243 236 235 235 233 229 228 230 226 228 233 235 236 243 249 253 258 267 277 280 281 280 274 272 270 263 266 255
350 350 349 352 351 347 342 341 339 339 327 305 285 274 252 236 228 229 230 228 222 225 224 225 225 230 234 235 239 245 251 258 265 276 280 284 287 276 272 270 267 263 253
356 358 359 360 359 1 359 0 4 8 358 346 321 279 242 227 217 217 224 218 214 217 218 221 222 226 235 236 236 243 251 260 265 275 282 281 284 284 284 280 281 266 259
5 5 7 7 7 9 10 11 16 23 25 33 55 81 161 190 204 205 214 210 205 210 215 219 224 229 236 240 242 247 254 257 262 274 280 275 272 274 283 282 277 259 248
17 14 12 10 13 17 19 21 25 34 41 54 73 84 99 124 168 192 206 198 199 207 212 218 223 232 239 240 245 252 254 257 260 269 272 267 265 269 281 285 278 258 234
22 18 17 16 20 23 25 29 36 44 59 65 68 75 78 86 151 173 186 175 191 193 201 212 223 236 245 237 243 246 249 257 263 271 271 265 260 268 275 281 281 263 236
24 22 21 22 24 28 30 33 42 49 61 64 65 68 73 77 112 143 139 143 168 190 189 199 220 239 239 238 239 238 241 249 263 268 266 263 264 270 268 268 266 261 236
28 23 27 27 28 32 34 39 48 54 59 61 64 63 59 72 104 124 132 146 166 172 177 184 203 230 228 253 255 255 262 265 268 269 267 266 268 270 266 267 271 270 252
30 29 31 32 35 36 39 42 48 56 61 60 61 65 72 81 83 99 130 145 159 164 160 166 155 196 244 258 268 271 274 274 271 272 271 266 271 264 264 268 268 269 261
37 34 35 39 42 43 45 48 49 53 57 60 65 65 68 74 75 76 97 117 119 148 172 187 179 40 291 299 288 284 285 279 274 275 269 267 271 272 272 270 268 270 270
40 40 43 47 50 49 48 50 54 57 58 61 66 66 67 71 71 74 78 88 85 119 147 176 291 327 330 334 315 300 290 280 277 276 275 270 272 272 273 273 270 273 276
45 44 46 50 53 52 50 54 58 60 59 63 64 65 67 70 70 69 68 66 65 71 54 66 343 329 330 332 327 315 304 289 284 284 287 282 277 278 276 276 275 273 274
49 46 47 51 58 56 57 58 60 57 55 56 58 60 63 64 67 65 62 57 61 62 47 34 29 11 356 343 332 323 318 305 293 291 291 285 280 279 286 285 282 280 276
50 47 48 55 60 60 59 60 58 53 49 52 53 54 57 57 61 62 58 53 64 69 56 49 39 18 354 346 334 322 305 302 303 299 295 293 288 290 291 288 286 281 277
50 59 62 64 65 63 61 59 57 51 45 45 47 50 52 58 62 60 59 56 54 51 46 30 6 356 351 346 344 342 332 313 311 314 312 309 306 315 308 299 290 285 281
199 100 82 74 71 67 60 56 54 46 42 41 44 49 54 57 51 50 54 57 52 41 29 17 12 359 354 353 348 346 341 326 318 316 313 315 314 319 312 305 297 289 285
210 199 136 77 58 48 44 43 39 37 34 33 35 41 45 42 41 38 41 36 27 19 12 8 7 9 2 355 347 343 340 334 321 314 313 314 312 310 312 308 302 297 291
231 237 247 260 301 341 357 7 9 12 13 13 13 15 16 16 15 13 11 6 1 356 351 350 352 348 349 351 348 344 339 333 327 318 312 311 311 308 307 307 304 301 296
234 241 251 257 267 281 303 323 333 341 344 345 343 341 343 344 344 343 337 334 333 334 331 328 329 331 331 332 331 331 328 324 321 318 312 311 309 309 307 304 302 301 298
238 242 249 256 264 271 282 291 302 311 317 321 326 330 330 326 324 321 320 317 317 319 320 319 319 319 318 320 319 319 318 316 314 313 311 311 311 308 305 304 302 301 299
243 246 250 257 262 266 273 280 287 294 298 303 310 315 316 315 314 311 311 309 310 312 312 314 314 313 312 313 312 312 311 311 309 308 308 307 307 308 305 303 302 300 298
246 249 252 257 262 267 272 277 279 284 289 292 295 298 302 305 304 306 307 307 308 309 309 309 309 309 308 307 306 306 307 307 305 305 305 305 305 305 305 305 304 302 300
248 250 253 258 263 268 272 274 277 279 283 286 287 291 297 299 299 301 302 301 302 303 305 306 305 306 305 304 304 303 303 304 304 304 303 304 304 305 305 305 304 304 302
249 252 255 259 264 268 271 274 273 275 281 284 286 288 290 293 294 296 298 300 300 301 303 304 304 304 304 304 303 303 302 303 305 305 304 304 304 304 304 304 303 303 302
250 254 259 263 264 265 269 272 274 276 279 282 283 285 288 290 291 293 294 296 297 298 299 300 301 303 304 304 304 303 302 302 302 302 301 302 302 302 302 303 302 302 302
252 256 261 264 266 267 268 271 274 276 280 283 285 286 288 289 291 292 293 293 295 297 298 299 300 301 302 302 302 302 301 300 299 299 300 300 300 300 301 301 302 302 302
Height
5874 5873 5872 5871 5869 5868 5867 5867 5866 5865 5865 5865 5865 5865 5865 5866 5867 5868 5869 5870 5872 5873 5875 5876 5878 5879 5880 5881 5882 5883 5884 5884 5885 5885 5885 5884 5883 5882 5882 5883 5883 5883 5882
5873 5872 5871 5870 5869 5868 5867 5866 5865 5865 5864 5864 5864 5864 5864 5865 5866 5867 5868 5869 5870 5872 5874 5875 5877 5878 5879 5880 5881 5882 5883 5883 5884 5884 5884 5883 5882 5880 5881 5882 5882 5883 5883
5873 5872 5871 5870 5869 5867 5866 5866 5865 5864 5864 5863 5863 5863 5864 5865 5866 5867 5867 5868 5870 5871 5873 5874 5876 5877 5878 5879 5880 5881 5882 5882 5883 5883 5883 5882 5881 5880 5881 5881 5882 5882 5882
5873 5872 5871 5870 5869 5867 5866 5866 5865 5864 5864 5863 5863 5864 5864 5865 5866 5866 5867 5868 5869 5871 5872 5874 5875 5876 5877 5878 5879 5880 5880 5881 5882 5882 5882 5882 5881 5881 5881 5881 5882 5882 5882
5873 5872 5871 5870 5869 5868 5867 5866 5865 5865 5864 5864 5864 5864 5865 5865 5866 5867 5867 5868 5869 5870 5872 5873 5875 5876 5877 5877 5878 5879 5879 5880 5881 5881 5881 5881 5881 5880 5881 5881 5881 5881 5881
5874 5872 5871 5870 5869 5869 5868 5867 5866 5865 5865 5865 5865 5865 5866 5866 5866 5867 5868 5868 5869 5871 5872 5873 5875 5875 5876 5877 5877 5878 5879 5879 5880 5880 5880 5880 5879 5880 5880 5881 5881 5881 5881
5874 5873 5872 5871 5870 5869 5868 5867 5867 5866 5866 5866 5866 5867 5867 5867 5867 5868 5868 5869 5870 5871 5872 5873 5875 5875 5876 5876 5877 5877 5878 5879 5879 5879 5879 5879 5879 5879 5880 5880 5881 5881 5880
5875 5874 5873 5872 5871 5870 5869 5868 5868 5867 5867 5867 5867 5868 5868 5868 5868 5869 5869 5870 5871 5871 5872 5874 5875 5875 5876 5876 5877 5877 5878 5878 5879 5879 5879 5879 5879 5879 5880 5880 5880 5881 5880
5876 5875 5874 5873 5872 5871 5870 5869 5869 5868 5868 5868 5868 5869 5869 5869 5869 5870 5870 5871 5872 5873 5873 5874 5875 5875 5876 5876 5877 5877 5877 5877 5878 5878 5879 5879 5879 5879 5879 5879 5880 5880 5880
5876 5876 5875 5874 5872 5872 5871 5871 5870 5870 5870 5869 5869 5870 5870 5871 5871 5871 5872 5872 5872 5873 5874 5875 5875 5876 5876 5876 5876 5876 5876 5876 5877 5877 5878 5878 5878 5878 5878 5878 5879 5879 5879
5877 5877 5876 5875 5874 5873 5873 5872 5872 5871 5871 5871 5871 5871 5871 5872 5872 5872 5873 5873 5873 5874 5874 5875 5875 5876 5876 5876 5876 5875 5875 5875 5876 5876 5876 5877 5877 5877 5877 5877 5878 5878 5878
5879 5878 5877 5876 5875 5875 5874 5874 5873 5873 5872 5872 5872 5872 5872 5873 5873 5873 5873 5874 5874 5874 5874 5875 5875 5875 5876 5876 5875 5874 5874 5874 5874 5875 5875 5875 5875 5875 5875 5876 5876 5876 5876
5880 5879 5879 5878 5877 5876 5876 5875 5875 5874 5874 5874 5873 5873 5873 5874 5874 5874 5874 5874 5874 5875 5875 5875 5875 5875 5875 5875 5874 5874 5873 5873 5873 5873 5874 5874 5874 5874 5874 5874 5874 5874 5874
5880 5880 5880 5879 5878 5878 5877 5877 5876 5876 5876 5875 5875 5875 5874 5874 5875 5875 5875 5875 5875 5875 5875 5875 5875 5875 5874 5874 5873 5872 5872 5872 5872 5873 5873 5872 5872 5872 5872 5872 5872 5872 5872
5881 5881 5881 5880 5880 5879 5879 5878 5878 5877 5877 5876 5876 5876 5875 5875 5875 5875 5875 5876 5876 5876 5876 5875 5875 5875 5874 5873 5872 5871 5871 5871 5871 5871 5871 5871 5871 5870 5870 5870 5869 5869 5869
5881 5881 5881 5881 5881 5880 5880 5879 5879 5878 5878 5877 5877 5876 5876 5876 5876 5876 5876 5876 5876 5876 5876 5875 5875 5875 5874 5873 5872 5871 5870 5870 5870 5870 5870 5870 5869 5869 5868 5868 5867 5867 5867
5881 5881 5882 5882 5881 5881 5881 5880 5880 5879 5878 5878 5877 5877 5877 5876 5876 5876 5876 5876 5876 5876 5876 5876 5875 5874 5873 5873 5871 5871 5870 5870 5869 5869 5869 5868 5868 5867 5866 5866 5865 5865 5864
5880 5881 5881 5882 5882 5881 5881 5881 5880 5880 5879 5878 5878 5877 5877 5877 5877 5877 5877 5877 5876 5876 5876 5876 5875 5874 5873 5872 5871 5870 5870 5869 5868 5868 5867 5867 5866 5865 5864 5863 5863 5862 5861
5879 5880 5881 5881 5881 5881 5881 5881 5880 5880 5879 5878 5878 5877 5877 5877 5876 5876 5876 5876 5876 5876 5875 5875 5875 5874 5873 5872 5871 5870 5869 5868 5867 5866 5865 5865 5864 5863 5861 5860 5859 5858 5857
5878 5879 5879 5880 5880 5880 5880 5880 5879 5879 5879 5878 5877 5877 5876 5876 5876 5875 5875 5875 5875 5875 5874 5874 5874 5873 5872 5871 5870 5869 5868 5867 5866 5865 5864 5862 5861 5860 5859 5857 5856 5855 5853
5876 5877 5878 5878 5879 5879 5879 5879 5878 5878 5878 5877 5877 5876 5875 5875 5874 5874 5874 5874 5874 5874 5873 5873 5872 5871 5870 5869 5868 5867 5866 5865 5864 5862 5861 5860 5858 5857 5855 5854 5852 5850 5849
5874 5875 5876 5876 5877 5877 5877 5877 5877 5877 5876 5876 5875 5875 5874 5873 5873 5873 5873 5873 5872 5872 5871 5871 5870 5869 5868 5867 5866 5865 5864 5862 5861 5860 5858 5856 5855 5853 5851 5849 5847 5845 5843
5871 5872 5873 5874 5874 5875 5875 5875 5875 5874 5874 5874 5873 5873 5872 5872 5871 5871 5871 5871 5870 5869 5869 5868 5867 5866 5865 5864 5862 5861 5860 5858 5857 5855 5854 5852 5850 5848 5846 5843 5841 5838 5836
5868 5869 5870 5871 5871 5872 5872 5872 5872 5872 5872 5872 5871 5871 5870 5870 5869 5869 5869 5868 5867 5867 5866 5865 5864 5862 5861 5859 5858 5857 5855 5854 5852 5850 5848 5847 5844 5842 5839 5836 5833 5831 5827
5865 5866 5867 5868 5868 5869 5869 5869 5869 5869 5869 5869 5868 5868 5867 5867 5866 5866 5865 5865 5864 5863 5862 5860 5859 5858 5856 5855 5853 5852 5850 5848 5847 5844 5842 5840 5838 5835 5832 5829 5825 5822 5819
5861 5863 5863 5864 5865 5865 5865 5865 5865 5865 5865 5865 5865 5864 5864 5863 5862 5862 5861 5860 5859 5858 5857 5855 5854 5852 5851 5849 5847 5846 5844 5842 5840 5838 5835 5833 5830 5827 5825 5821 5817 5813 5809